• In Lithuania
  • List of Countries
  • For 7 days
  • Water Temperature
  • Satellite Maps
  • Weather Map
  • Weather Widgets
  • user-avatar
    Login

    Hourly Weather Río Gallegos

    Today, 19 October, Friday

    Time Temperature Precipitation Wind Pressure Humidity
    00:00 +5°C° 0 mm 3 mps 772 mmHg 70%
    01:00 +4°C° 0 mm 3 mps 772 mmHg 67%
    02:00 +4°C° 0 mm 3 mps 771 mmHg 66%
    03:00 +4°C° 0 mm 3 mps 771 mmHg 64%
    04:00 +5°C° 0 mm 2 mps 770 mmHg 63%
    05:00 +6°C° 0 mm 2 mps 770 mmHg 59%
    06:00 +8°C° 0 mm 2 mps 770 mmHg 54%
    07:00 +9°C° 0 mm 2 mps 770 mmHg 48%
    08:00 +10°C° 0 mm 3 mps 769 mmHg 45%
    09:00 +12°C° 0 mm 3 mps 769 mmHg 41%
    10:00 +13°C° 0 mm 3 mps 768 mmHg 37%
    11:00 +14°C° 0 mm 4 mps 768 mmHg 36%
    12:00 +14°C° 0 mm 4 mps 768 mmHg 35%
    13:00 +15°C° 0 mm 5 mps 767 mmHg 34%
    14:00 +15°C° 0 mm 5 mps 767 mmHg 36%
    15:00 +14°C° 0 mm 6 mps 766 mmHg 39%
    16:00 +14°C° 0 mm 6 mps 766 mmHg 41%
    17:00 +11°C° 0 mm 6 mps 765 mmHg 46%
    18:00 +9°C° 0 mm 6 mps 765 mmHg 52%
    19:00 +8°C° 0 mm 6 mps 765 mmHg 57%
    20:00 +7°C° 0 mm 5 mps 765 mmHg 61%
    21:00 +7°C° 0 mm 5 mps 764 mmHg 65%
    22:00 +7°C° 0 mm 5 mps 764 mmHg 69%
    23:00 +7°C° 0 mm 5 mps 763 mmHg 71%

    Tomorrow, 20 October, Saturday

    Time Temperature Precipitation Wind Pressure Humidity
    00:00 +7°C° 0 mm 4 mps 763 mmHg 73%
    01:00 +6°C° 0 mm 4 mps 762 mmHg 74%
    02:00 +6°C° 0 mm 4 mps 762 mmHg 74%
    03:00 +7°C° 0 mm 3 mps 761 mmHg 74%
    04:00 +8°C° 0 mm 3 mps 761 mmHg 74%
    05:00 +9°C° 0 mm 3 mps 760 mmHg 69%
    06:00 +11°C° 0 mm 3 mps 760 mmHg 65%
    07:00 +12°C° 0 mm 3 mps 759 mmHg 60%
    08:00 +14°C° 0 mm 4 mps 759 mmHg 55%
    09:00 +15°C° 0 mm 4 mps 758 mmHg 50%
    10:00 +17°C° 0 mm 5 mps 757 mmHg 45%
    11:00 +17°C° 0 mm 5 mps 757 mmHg 44%
    12:00 +19°C° 0 mm 5 mps 756 mmHg 43%
    13:00 +19°C° 0 mm 5 mps 755 mmHg 43%
    14:00 +17°C° 0 mm 5 mps 755 mmHg 46%
    15:00 +16°C° 0 mm 5 mps 754 mmHg 49%
    16:00 +17°C° 0 mm 4 mps 753 mmHg 52%
    17:00 +15°C° 0 mm 4 mps 753 mmHg 55%
    18:00 +14°C° 0 mm 4 mps 753 mmHg 58%
    19:00 +13°C° 0 mm 3 mps 753 mmHg 60%
    20:00 +12°C° 0 mm 5 mps 754 mmHg 59%
    21:00 +10°C° 0 mm 6 mps 754 mmHg 58%
    22:00 +9°C° 0 mm 8 mps 754 mmHg 56%
    23:00 +7°C° 0 mm 8 mps 754 mmHg 60%

    Day after tomorrow, 21 October, Sunday

    Time Temperature Precipitation Wind Pressure Humidity
    00:00 +7°C° 0 mm 9 mps 754 mmHg 64%
    01:00 +6°C° 0 mm 9 mps 754 mmHg 67%
    02:00 +6°C° 0.2 mm 10 mps 755 mmHg 71%
    03:00 +5°C° 0.2 mm 10 mps 755 mmHg 75%
    04:00 +4°C° 0.2 mm 11 mps 756 mmHg 79%
    05:00 +4°C° 0.3 mm 11 mps 756 mmHg 79%
    06:00 +3°C° 0.3 mm 11 mps 757 mmHg 79%
    07:00 +3°C° 0.3 mm 12 mps 757 mmHg 79%
    08:00 +3°C° 0.1 mm 11 mps 758 mmHg 73%
    09:00 +5°C° 0.1 mm 10 mps 758 mmHg 68%
    10:00 +5°C° 0.1 mm 10 mps 759 mmHg 62%
    11:00 +5°C° 0 mm 9 mps 759 mmHg 60%
    12:00 +5°C° 0 mm 8 mps 760 mmHg 58%
    13:00 +5°C° 0 mm 8 mps 760 mmHg 55%
    14:00 +5°C° 0 mm 7 mps 760 mmHg 54%
    15:00 +5°C° 0 mm 6 mps 760 mmHg 53%
    16:00 +6°C° 0 mm 5 mps 760 mmHg 52%
    17:00 +6°C° 0 mm 4 mps 761 mmHg 56%
    18:00 +5°C° 0 mm 3 mps 761 mmHg 59%
    19:00 +7°C° 0 mm 1 mps 761 mmHg 62%
    20:00 +5°C° 0 mm 2 mps 762 mmHg 63%
    21:00 +5°C° 0 mm 2 mps 762 mmHg 65%
    22:00 +4°C° 0 mm 3 mps 762 mmHg 66%
    23:00 +4°C° 0 mm 3 mps 762 mmHg 67%

    22 October, Monday

    Time Temperature Precipitation Wind Pressure Humidity
    00:00 +4°C° 0 mm 3 mps 762 mmHg 67%
    01:00 +3°C° 0 mm 4 mps 762 mmHg 68%
    02:00 +3°C° 0 mm 4 mps 762 mmHg 69%
    03:00 +1°C° 0 mm 5 mps 763 mmHg 70%
    04:00 +1°C° 0 mm 5 mps 763 mmHg 71%
    05:00 +2°C° 0 mm 5 mps 763 mmHg 68%
    06:00 +2°C° 0 mm 6 mps 763 mmHg 66%
    07:00 +3°C° 0 mm 6 mps 764 mmHg 63%
    08:00 +4°C° 0 mm 6 mps 764 mmHg 57%
    09:00 +7°C° 0 mm 6 mps 764 mmHg 52%
    10:00 +8°C° 0 mm 6 mps 764 mmHg 46%
    11:00 +9°C° 0 mm 5 mps 764 mmHg 44%
    12:00 +10°C° 0 mm 5 mps 764 mmHg 42%
    13:00 +12°C° 0 mm 4 mps 764 mmHg 40%
    14:00 +12°C° 0 mm 4 mps 764 mmHg 41%
    15:00 +12°C° 0 mm 3 mps 764 mmHg 41%
    16:00 +12°C° 0 mm 3 mps 764 mmHg 41%
    17:00 +11°C° 0 mm 3 mps 764 mmHg 47%
    18:00 +10°C° 0 mm 3 mps 765 mmHg 52%
    19:00 +9°C° 0 mm 3 mps 765 mmHg 57%
    20:00 +8°C° 0 mm 3 mps 765 mmHg 60%
    21:00 +8°C° 0 mm 3 mps 765 mmHg 63%
    22:00 +7°C° 0 mm 2 mps 765 mmHg 66%
    23:00 +7°C° 0 mm 2 mps 765 mmHg 66%

    23 October, Tuesday

    Time Temperature Precipitation Wind Pressure Humidity
    00:00 +6°C° 0 mm 2 mps 765 mmHg 67%
    01:00 +6°C° 0 mm 2 mps 765 mmHg 68%
    02:00 +6°C° 0 mm 2 mps 765 mmHg 70%
    03:00 +5°C° 0 mm 2 mps 765 mmHg 71%
    04:00 +6°C° 0 mm 1 mps 765 mmHg 73%
    05:00 +7°C° 0 mm 1 mps 765 mmHg 69%
    06:00 +9°C° 0 mm 1 mps 765 mmHg 65%
    07:00 +10°C° 0 mm 1 mps 765 mmHg 60%
    08:00 +11°C° 0 mm 1 mps 764 mmHg 57%
    09:00 +12°C° 0 mm 1 mps 764 mmHg 53%
    10:00 +13°C° 0 mm 1 mps 764 mmHg 50%
    11:00 +14°C° 0 mm 1 mps 763 mmHg 48%
    12:00 +14°C° 0 mm 2 mps 763 mmHg 47%
    13:00 +15°C° 0 mm 2 mps 762 mmHg 45%
    14:00 +15°C° 0 mm 2 mps 762 mmHg 47%
    15:00 +13°C° 0 mm 3 mps 762 mmHg 49%
    16:00 +13°C° 0 mm 3 mps 761 mmHg 51%
    17:00 +12°C° 0 mm 3 mps 761 mmHg 55%
    18:00 +11°C° 0 mm 3 mps 761 mmHg 60%
    19:00 +10°C° 0 mm 3 mps 761 mmHg 64%
    20:00 +10°C° 0 mm 3 mps 762 mmHg 66%
    21:00 +9°C° 0 mm 3 mps 762 mmHg 68%
    22:00 +7°C° 0 mm 4 mps 762 mmHg 70%
    23:00 +7°C° 0 mm 4 mps 762 mmHg 70%

    24 October, Wednesday

    Time Temperature Precipitation Wind Pressure Humidity
    00:00 +6°C° 0 mm 4 mps 761 mmHg 71%
    01:00 +6°C° 0 mm 5 mps 761 mmHg 72%
    02:00 +5°C° 0 mm 5 mps 761 mmHg 71%
    03:00 +4°C° 0 mm 6 mps 762 mmHg 71%
    04:00 +3°C° 0 mm 6 mps 762 mmHg 71%
    05:00 +4°C° 0 mm 7 mps 762 mmHg 69%
    06:00 +5°C° 0 mm 7 mps 762 mmHg 68%
    07:00 +5°C° 0 mm 7 mps 762 mmHg 66%
    08:00 +6°C° 0 mm 7 mps 762 mmHg 64%
    09:00 +8°C° 0 mm 7 mps 762 mmHg 61%
    10:00 +10°C° 0 mm 7 mps 762 mmHg 58%
    11:00 +10°C° 0 mm 7 mps 762 mmHg 58%
    12:00 +10°C° 0 mm 7 mps 762 mmHg 57%
    13:00 +10°C° 0 mm 8 mps 762 mmHg 56%
    14:00 +10°C° 0 mm 8 mps 762 mmHg 59%
    15:00 +9°C° 0 mm 8 mps 762 mmHg 62%
    16:00 +7°C° 0 mm 8 mps 762 mmHg 65%
    17:00 +6°C° 0.3 mm 8 mps 762 mmHg 70%
    18:00 +6°C° 0.3 mm 8 mps 762 mmHg 74%
    19:00 +5°C° 0.3 mm 8 mps 763 mmHg 79%
    20:00 +5°C° 1 mm 8 mps 763 mmHg 82%
    21:00 +4°C° 1 mm 8 mps 763 mmHg 85%
    22:00 +4°C° 1 mm 8 mps 763 mmHg 88%
    23:00 +3°C° 1.3 mm 9 mps 763 mmHg 89%
    Show more